When you browse on this site, cookies collect data to enhance your experience and personalize the content and advertising you see.
Visit our Privacy Policy to learn more. By continuing to use the site, you agree to this use of cookies and data.
  • In Schweiz
  • Länderverzeichnis
  • Für 7 Tage
  • Wassertemperatur
  • Satellitenkarten
  • Wetterkarte
  • Widgets
  • user-avatar
    Anmelden

    Stündliche Wetter Salzburg

    Heute, 22 März, Freitag

    Zeit Temperatur Niederschläge Wind Luftdruck Luftfeuchtigkeit
    00:00 -5°C° 0 mm 2 m/S 632 mmHg 72%
    01:00 -5°C° 0 mm 2 m/S 632 mmHg 66%
    02:00 -5°C° 0 mm 2 m/S 632 mmHg 66%
    03:00 -5°C° 0 mm 2 m/S 631 mmHg 66%
    04:00 -5°C° 0 mm 2 m/S 631 mmHg 66%
    05:00 -5°C° 0 mm 2 m/S 631 mmHg 66%
    06:00 -4°C° 0 mm 2 m/S 631 mmHg 67%
    07:00 -3°C° 0 mm 2 m/S 632 mmHg 67%
    08:00 -1°C° 0 mm 2 m/S 633 mmHg 71%
    09:00 +4°C° 0 mm 1 m/S 633 mmHg 74%
    10:00 +6°C° 0 mm 1 m/S 634 mmHg 78%
    11:00 +7°C° 0 mm 1 m/S 634 mmHg 77%
    12:00 +9°C° 0 mm 1 m/S 634 mmHg 76%
    13:00 +10°C° 0 mm 1 m/S 634 mmHg 75%
    14:00 +9°C° 0 mm 1 m/S 634 mmHg 77%
    15:00 +9°C° 0 mm 1 m/S 634 mmHg 80%
    16:00 +8°C° 0 mm 1 m/S 633 mmHg 82%
    17:00 +6°C° 0 mm 1 m/S 632 mmHg 84%
    18:00 +4°C° 0 mm 1 m/S 632 mmHg 86%
    19:00 +2°C° 0 mm 1 m/S 631 mmHg 87%
    20:00 +2°C° 0 mm 1 m/S 631 mmHg 86%
    21:00 -1°C° 0 mm 2 m/S 631 mmHg 84%
    22:00 -2°C° 0 mm 2 m/S 631 mmHg 83%
    23:00 -2°C° 0 mm 2 m/S 631 mmHg 82%

    Morgen, 23 März, Samstag

    Zeit Temperatur Niederschläge Wind Luftdruck Luftfeuchtigkeit
    00:00 -2°C° 0 mm 2 m/S 631 mmHg 80%
    01:00 -2°C° 0 mm 2 m/S 631 mmHg 79%
    02:00 -2°C° 0 mm 2 m/S 631 mmHg 79%
    03:00 -3°C° 0 mm 2 m/S 631 mmHg 78%
    04:00 -1°C° 0 mm 1 m/S 630 mmHg 78%
    05:00 -1°C° 0 mm 1 m/S 631 mmHg 78%
    06:00 0°C° 0 mm 1 m/S 631 mmHg 79%
    07:00 0°C° 0 mm 1 m/S 631 mmHg 79%
    08:00 +2°C° 0 mm 1 m/S 632 mmHg 78%
    09:00 +4°C° 0 mm 0 m/S 632 mmHg 78%
    10:00 +7°C° 0 mm 0 m/S 633 mmHg 77%
    11:00 +7°C° 0 mm 0 m/S 633 mmHg 75%
    12:00 +8°C° 0 mm 0 m/S 633 mmHg 73%
    13:00 +10°C° 0 mm 1 m/S 633 mmHg 71%
    14:00 +10°C° 0 mm 1 m/S 633 mmHg 72%
    15:00 +9°C° 0 mm 1 m/S 632 mmHg 74%
    16:00 +9°C° 0 mm 1 m/S 632 mmHg 75%
    17:00 +7°C° 0 mm 1 m/S 631 mmHg 80%
    18:00 +3°C° 0 mm 0 m/S 630 mmHg 85%
    19:00 +1°C° 0 mm 0 m/S 630 mmHg 89%
    20:00 +1°C° 0 mm 0 m/S 630 mmHg 90%
    21:00 +1°C° 0 mm 1 m/S 630 mmHg 91%
    22:00 +1°C° 0 mm 1 m/S 630 mmHg 91%
    23:00 +1°C° 0 mm 1 m/S 630 mmHg 91%

    übermorgen, 24 März, Sonntag

    Zeit Temperatur Niederschläge Wind Luftdruck Luftfeuchtigkeit
    00:00 +1°C° 0 mm 1 m/S 630 mmHg 91%
    01:00 0°C° 0 mm 1 m/S 630 mmHg 90%
    02:00 0°C° 0 mm 1 m/S 629 mmHg 90%
    03:00 0°C° 0 mm 1 m/S 629 mmHg 89%
    04:00 0°C° 0 mm 1 m/S 629 mmHg 88%
    05:00 0°C° 0 mm 1 m/S 629 mmHg 87%
    06:00 0°C° 0 mm 1 m/S 629 mmHg 85%
    07:00 +1°C° 0 mm 1 m/S 629 mmHg 84%
    08:00 +3°C° 0 mm 1 m/S 630 mmHg 79%
    09:00 +6°C° 0 mm 1 m/S 631 mmHg 75%
    10:00 +7°C° 0 mm 0 m/S 631 mmHg 70%
    11:00 +9°C° 0 mm 1 m/S 631 mmHg 69%
    12:00 +9°C° 0 mm 1 m/S 631 mmHg 67%
    13:00 +10°C° 0 mm 1 m/S 631 mmHg 65%
    14:00 +9°C° 0 mm 1 m/S 631 mmHg 69%
    15:00 +9°C° 0 mm 1 m/S 630 mmHg 73%
    16:00 +8°C° 0 mm 1 m/S 630 mmHg 76%
    17:00 +7°C° 0 mm 1 m/S 629 mmHg 83%
    18:00 +5°C° 0 mm 1 m/S 629 mmHg 89%
    19:00 +2°C° 0 mm 0 m/S 628 mmHg 95%
    20:00 +2°C° 0.2 mm 0 m/S 629 mmHg 95%
    21:00 +3°C° 0.2 mm 1 m/S 629 mmHg 95%
    22:00 +3°C° 0.2 mm 1 m/S 629 mmHg 95%
    23:00 +2°C° 0.4 mm 1 m/S 629 mmHg 96%

    25 März, Montag

    Zeit Temperatur Niederschläge Wind Luftdruck Luftfeuchtigkeit
    00:00 +2°C° 0.4 mm 1 m/S 629 mmHg 97%
    01:00 +2°C° 0.4 mm 1 m/S 629 mmHg 97%
    02:00 +2°C° 0.3 mm 1 m/S 629 mmHg 97%
    03:00 +2°C° 0.3 mm 1 m/S 629 mmHg 97%
    04:00 +1°C° 0.3 mm 1 m/S 628 mmHg 97%
    05:00 +1°C° 0.4 mm 1 m/S 628 mmHg 97%
    06:00 +1°C° 0.4 mm 1 m/S 628 mmHg 97%
    07:00 +1°C° 0.4 mm 1 m/S 628 mmHg 97%
    08:00 +1°C° 0.4 mm 1 m/S 628 mmHg 96%
    09:00 +1°C° 0.4 mm 1 m/S 628 mmHg 95%
    10:00 -1°C° 0.4 mm 2 m/S 628 mmHg 93%
    11:00 +1°C° 0.2 mm 2 m/S 628 mmHg 91%
    12:00 +1°C° 0.2 mm 2 m/S 628 mmHg 88%
    13:00 +1°C° 0.2 mm 2 m/S 627 mmHg 86%
    14:00 +1°C° 0.3 mm 2 m/S 627 mmHg 86%
    15:00 +1°C° 0.3 mm 2 m/S 627 mmHg 87%
    16:00 -1°C° 0.3 mm 2 m/S 626 mmHg 88%
    17:00 -1°C° 0.6 mm 2 m/S 626 mmHg 89%
    18:00 -2°C° 0.6 mm 2 m/S 627 mmHg 91%
    19:00 -3°C° 0.6 mm 2 m/S 627 mmHg 93%
    20:00 -4°C° 0.9 mm 2 m/S 627 mmHg 94%
    21:00 -4°C° 0.9 mm 2 m/S 628 mmHg 94%
    22:00 -5°C° 0.9 mm 2 m/S 628 mmHg 95%
    23:00 -5°C° 1.2 mm 2 m/S 628 mmHg 95%

    26 März, Dienstag

    Zeit Temperatur Niederschläge Wind Luftdruck Luftfeuchtigkeit
    00:00 -6°C° 1.2 mm 2 m/S 628 mmHg 95%
    01:00 -6°C° 1.2 mm 2 m/S 629 mmHg 95%
    02:00 -6°C° 0.3 mm 2 m/S 629 mmHg 95%
    03:00 -7°C° 0.3 mm 2 m/S 629 mmHg 95%
    04:00 -7°C° 0.3 mm 2 m/S 629 mmHg 95%
    05:00 -7°C° 0.3 mm 2 m/S 630 mmHg 94%
    06:00 -7°C° 0.3 mm 2 m/S 630 mmHg 93%
    07:00 -7°C° 0.3 mm 2 m/S 631 mmHg 92%
    08:00 -7°C° 0.2 mm 2 m/S 631 mmHg 89%
    09:00 -6°C° 0.2 mm 2 m/S 632 mmHg 86%
    10:00 -5°C° 0.2 mm 2 m/S 632 mmHg 83%
    11:00 -5°C° 0.2 mm 2 m/S 632 mmHg 81%
    12:00 -4°C° 0.2 mm 2 m/S 632 mmHg 78%
    13:00 -4°C° 0.2 mm 2 m/S 632 mmHg 76%
    14:00 -4°C° 0.1 mm 2 m/S 632 mmHg 76%
    15:00 -2°C° 0.1 mm 1 m/S 631 mmHg 76%
    16:00 -2°C° 0.1 mm 1 m/S 631 mmHg 75%
    17:00 -3°C° 0 mm 1 m/S 631 mmHg 80%
    18:00 -6°C° 0 mm 1 m/S 631 mmHg 85%
    19:00 -8°C° 0 mm 0 m/S 631 mmHg 89%
    20:00 -8°C° 0 mm 1 m/S 631 mmHg 89%
    21:00 -8°C° 0 mm 1 m/S 631 mmHg 89%
    22:00 -9°C° 0 mm 1 m/S 632 mmHg 89%
    23:00 -9°C° 0 mm 1 m/S 631 mmHg 87%

    27 März, Mittwoch

    Zeit Temperatur Niederschläge Wind Luftdruck Luftfeuchtigkeit
    00:00 -9°C° 0 mm 1 m/S 631 mmHg 85%
    01:00 -9°C° 0 mm 1 m/S 631 mmHg 82%
    02:00 -9°C° 0 mm 1 m/S 631 mmHg 79%
    03:00 -9°C° 0 mm 1 m/S 631 mmHg 76%
    04:00 -9°C° 0 mm 1 m/S 631 mmHg 72%
    05:00 -8°C° 0 mm 1 m/S 631 mmHg 71%
    06:00 -8°C° 0 mm 1 m/S 631 mmHg 69%
    07:00 -7°C° 0 mm 1 m/S 632 mmHg 67%
    08:00 -4°C° 0 mm 1 m/S 632 mmHg 64%
    09:00 -1°C° 0 mm 1 m/S 633 mmHg 60%
    10:00 +1°C° 0 mm 1 m/S 634 mmHg 57%
    11:00 +2°C° 0 mm 1 m/S 634 mmHg 57%
    12:00 +3°C° 0 mm 1 m/S 634 mmHg 56%
    13:00 +3°C° 0 mm 1 m/S 633 mmHg 56%
    14:00 +3°C° 0 mm 1 m/S 633 mmHg 59%
    15:00 +3°C° 0 mm 1 m/S 633 mmHg 61%
    16:00 +3°C° 0 mm 1 m/S 633 mmHg 64%
    17:00 +1°C° 0 mm 1 m/S 633 mmHg 69%
    18:00 -1°C° 0 mm 0 m/S 632 mmHg 74%
    19:00 -3°C° 0 mm 0 m/S 632 mmHg 79%
    20:00 -3°C° 0 mm 0 m/S 633 mmHg 79%
    21:00 -3°C° 0 mm 0 m/S 633 mmHg 80%
    22:00 -3°C° 0 mm 1 m/S 633 mmHg 80%
    23:00 -3°C° 0 mm 1 m/S 633 mmHg 80%
    Mehr zeigen